Regional Weather Roundup
Issued by NWS Portland, ME

Home | Current Version | Previous Version | Text Only | Print | Product List | Glossary On
Versions: 1 2 3 4 5 6 7 8 9 10 11 12 13 14 15 16 17 18 19 20 21 22 23 24 25 26 27 28 29 30 31 32 33 34 35 36 37 38 39 40 41 42 43 44 45 46 47 48 49 50
000
ASUS41 KGYX 260905
RWRGYX
WEATHER ROUNDUP FOR MAINE AND NEW HAMPSHIRE
NATIONAL WEATHER SERVICE GRAY ME
500 AM EDT FRI AUG 26 2016

MEZ002-005-006-010-012-015-018-020-021-024-026-027-029-261000-
MAINE

CITY           SKY/WX    TMP DP  RH WIND       PRES   REMARKS
PORTLAND       CLOUDY    71  66  84 SE3       29.90F
SANFORD        FAIR      70  66  87 SW6       29.93S
BAR HARBOR     CLOUDY    66  63  90 SW7       29.92R
WISCASSET      CLOUDY    70  64  81 SW3       29.92S
ROCKLAND       CLOUDY    68  65  90 SW9       29.91S
FRYEBURG       FAIR      65  64  97 CALM      29.92S FOG
LEWISTONAUBURN CLOUDY    68  67  96 CALM      29.91F
AUGUSTA        FAIR      67  65  93 SW5       29.91S
WATERVILLE     FAIR      65  65 100 CALM      29.89R FOG
BANGOR         MOCLDY    67  64  90 S7        29.90R
GREENVILLE       N/A     66  63  90 S5        29.91R
MILLINOCKET    FAIR      67  65  93 CALM      29.89R
HOULTON        FAIR      68  67  96 SW7       29.85S
PRESQUE ISLE   FAIR      67  66  97 SW5       29.86S
FRENCHVILLE    MOCLDY    67  64  90 S6        29.84S
CARIBOU        CLOUDY    69  67  93 CALM      29.84S
$$

NHZ002-005-008-009-011-012-014-261000-
NEW HAMPSHIRE

CITY           SKY/WX    TMP DP  RH WIND       PRES   REMARKS
PORTSMOUTH     MOCLDY    72  66  81 SW6       29.91F
ROCHESTER      FAIR      69  65  86 CALM      29.93S
NASHUA         FAIR      69  67  93 CALM      29.95S
MANCHESTER     FAIR      71  65  81 S6        29.93S
CONCORD        FAIR      68  65  90 CALM      29.94S
LACONIA        FAIR      70  67  90 SW5       29.95S
PLYMOUTH       FOG       64  63  97 CALM      29.94R VSB<1/4
BERLIN         CLOUDY    67  64  90 SE3       29.94S
WHITEFIELD     FAIR      62  59  90 CALM      29.94F
JAFFREY        CLOUDY    67  64  90 S5        29.99S
KEENE          MOCLDY    65  65 100 CALM      29.97S
LEBANON        FAIR      69  66  90 CALM      29.93S
MT WASHINGTON  FOG       55  55 100 W32         N/A  VSB 0
$$

VTZ005-007-008-261000-
VERMONT

CITY           SKY/WX    TMP DP  RH WIND       PRES   REMARKS
ST JOHNSBURY     N/A     68  65  90 MISG      29.91S
MONTPELIER     FAIR      66  65  96 CALM      29.97S
BURLINGTON     LGT RAIN  73  69  87 S7        29.90R
$$

MAZ007-012-024-CTZ003-RIZ002-NYZ038-NYZ072-261000-
SOUTHERN NEW ENGLAND AND NY

CITY           SKY/WX    TMP DP  RH WIND       PRES   REMARKS
BOSTON         FAIR      73  69  87 SW9       29.95S
WORCESTER      FAIR      68  66  93 W9        29.99S
NANTUCKET      CLOUDY    72  69  90 S13       30.00S
PROVIDENCE     MOCLDY    74  69  85 SW7       29.97F
HARTFORD       MOCLDY    71  68  90 S6        29.96S
ALBANY         CLOUDY    72  70  93 S8        29.93S
NEW YORK CITY  FAIR      78  70  76 S7        29.96F
$$

ANZ081-ANZ082-ANZ150-NHZ014-MEZ023>029-261000-
COASTAL MARINE OBSERVATIONS

STATION/POSITION TIME  TEMP    WIND        PRES    WAVE
                       AIR SEA DIR/SP/G            HT/PER
                 (UTC) (F)     (DEG/KT/KT) (MB)    (FT/S)
MOUNT DESERT ROC 0900   63     200/ 15/ 16 1013.3R
MATINICUS ROCK   0800   64     220/ 20/ 21 1012.5F
ISLE OF SHOALS   0800   70     210/ 15/ 16 1013.2R
JEFFREYS LEDGE   0808      65                N/A     3/ 5
CASHES LEDGE BUO 0750   71 68  210/ 16/ 19 1013.3    4/ 6
GEORGES BANK BUO 0750   71 69              1017.5    2/ 8
$$

.............KEY..............
   WCI - WIND CHILL
   TC  - TEMPERATURE IN CELSIUS
   VSB - VISIBILITY IN MILES
   HX  - HEAT INDEX
   FAIR- INDICATES FEW OR NO CLOUDS BELOW 12,000 FT, WITH NO
         SIGNIFICANT WEATHER AND/OR OBSTRUCTIONS TO VISIBILITY.






USA.gov is the U.S. government's official web portal to all federal, state and local government web resources and services.